This is the latest recevied weather packets stored in our database for station/object EA5GK-10. If no packets are shown the sender has not sent any weather packets the latest 10 day(s).
| Time | Temp. | Humidity | Pressure | Rain* | Wind** | Luminosity | Snow |
|---|---|---|---|---|---|---|---|
| 1777897843 | 22.22° C | 55% | 1012.9 hPa | - | - | - | - |
| 1777896942 | 22.22° C | 56% | 1012.9 hPa | - | - | - | - |
| 1777896042 | 22.22° C | 55% | 1013.2 hPa | - | - | - | - |
| 1777895142 | 22.22° C | 55% | 1013.5 hPa | - | - | - | - |
| 1777894242 | 22.22° C | 55% | 1013.6 hPa | - | - | - | - |
| 1777893342 | 22.22° C | 54% | 1013.7 hPa | - | - | - | - |
| 1777892442 | 22.22° C | 54% | 1013.9 hPa | - | - | - | - |
| 1777891542 | 22.22° C | 53% | 1014 hPa | - | - | - | - |
| 1777890642 | 21.67° C | 54% | 1014.1 hPa | - | - | - | - |
| 1777889741 | 21.67° C | 56% | 1014.4 hPa | - | - | - | - |
| 1777888841 | 21.67° C | 57% | 1014.6 hPa | - | - | - | - |
| 1777887941 | 21.11° C | 58% | 1014.7 hPa | - | - | - | - |
| 1777887041 | 21.11° C | 59% | 1014.8 hPa | - | - | - | - |
| 1777886141 | 21.11° C | 60% | 1015 hPa | - | - | - | - |
| 1777885241 | 21.11° C | 61% | 1014.9 hPa | - | - | - | - |
| 1777884341 | 20.56° C | 63% | 1014.9 hPa | - | - | - | - |
| 1777883440 | 20.56° C | 62% | 1015 hPa | - | - | - | - |
| 1777882540 | 20.56° C | 62% | 1015 hPa | - | - | - | - |
| 1777881640 | 20.56° C | 57% | 1015.1 hPa | - | - | - | - |
| 1777880740 | 20.56° C | 53% | 1015 hPa | - | - | - | - |
| 1777879840 | 20.56° C | 54% | 1015 hPa | - | - | - | - |
| 1777878940 | 20.56° C | 54% | 1014.8 hPa | - | - | - | - |
| 1777878040 | 20.56° C | 54% | 1014.8 hPa | - | - | - | - |
| 1777877140 | 20.56° C | 54% | 1014.7 hPa | - | - | - | - |
| 1777876239 | 21.11° C | 54% | 1014.7 hPa | - | - | - | - |
* Rain since midnight (hover to see other rain measurements)
** Current wind speed in m/s (hover to see current wind gust speed)